This is the latest recevied weather packets stored in our database for station/object HP1CDW-11. If no packets are shown the sender has not sent any weather packets the latest 10 day(s).
| Time | Temp. | Humidity | Pressure | Rain* | Wind** | Luminosity | Snow |
|---|---|---|---|---|---|---|---|
| 1788450978 | 32.22° C | 57% | 1010.6 hPa | - | - | - | - |
| 1788450378 | 32.22° C | 57% | 1010.7 hPa | - | - | - | - |
| 1788449777 | 32.22° C | 57% | 1010.9 hPa | - | - | - | - |
| 1788449177 | 32.22° C | 57% | 1010.8 hPa | - | - | - | - |
| 1788448577 | 32.22° C | 57% | 1010.8 hPa | - | - | - | - |
| 1788447977 | 31.67° C | 57% | 1010.9 hPa | - | - | - | - |
| 1788447376 | 31.67° C | 57% | 1010.9 hPa | - | - | - | - |
| 1788446776 | 31.67° C | 57% | 1010.9 hPa | - | - | - | - |
| 1788446175 | 31.67° C | 56% | 1010.8 hPa | - | - | - | - |
| 1788445575 | 31.67° C | 54% | 1011 hPa | - | - | - | - |
| 1788444975 | 31.67° C | 54% | 1010.9 hPa | - | - | - | - |
| 1788444374 | 31.67° C | 57% | 1010.6 hPa | - | - | - | - |
| 1788443774 | 31.67° C | 57% | 1010.5 hPa | - | - | - | - |
| 1788443174 | 31.67° C | 59% | 1010.5 hPa | - | - | - | - |
| 1788442576 | 31.11° C | 61% | 1010.4 hPa | - | - | - | - |
| 1788441973 | 31.11° C | 61% | 1010.5 hPa | - | - | - | - |
| 1788441373 | 31.11° C | 62% | 1010.6 hPa | - | - | - | - |
| 1788440773 | 31.11° C | 62% | 1010.5 hPa | - | - | - | - |
| 1788440172 | 31.11° C | 62% | 1010.5 hPa | - | - | - | - |
| 1788439572 | 31.11° C | 62% | 1010.1 hPa | - | - | - | - |
| 1788438972 | 31.11° C | 62% | 1009.9 hPa | - | - | - | - |
| 1788438371 | 31.11° C | 62% | 1009.9 hPa | - | - | - | - |
| 1788437771 | 31.11° C | 62% | 1009.9 hPa | - | - | - | - |
| 1788437171 | 31.11° C | 62% | 1010.2 hPa | - | - | - | - |
| 1788436570 | 31.11° C | 62% | 1010.2 hPa | - | - | - | - |
* Rain since midnight (hover to see other rain measurements)
** Current wind speed in m/s (hover to see current wind gust speed)